Kaltag, AK

9:25 AM AKDT on September 26, 2017 (GMT -0800)
Kaltag

Weather History for PAKV - March, 2014

Change the Weather History Date:

Sunday, March 16, 2014

  Actual Average (PAGA) Record (PAGA)
Temperature  
Mean Temperature 1 °F -  
Max Temperature 21 °F 15 °F 42 °F (1998)
Min Temperature -17 °F -6 °F -49 °F (1966)
Degree Days  
Heating Degree Days 64    
Moisture  
Dew Point -2 °F    
Average Humidity 74    
Maximum Humidity 89    
Minimum Humidity 51    
Precipitation  
Precipitation 0.01 in - - ()
Sea Level Pressure  
Sea Level Pressure 29.51 in    
Wind  
Wind Speed 6 mph (NE)    
Max Wind Speed 16 mph    
Max Gust Speed 18 mph    
Visibility 6 miles    
Events Fog , Snow    
Averages and records for this station are not official NWS values.
T = Trace of Precipitation, MM = Missing Value Source: NWS Daily Summary

Daily Weather History Graph

Daily Weather History Graph

Search for Another Location

Airport or City:

Trip Planner

Search our weather history database for the weather conditions in past years. The results will help you decide how hot, cold, wet, or windy it might be!

Date:

Astronomy

Mar. 16, 2014 Rise Set
Actual Time 8:48 AM AKDT 8:39 PM AKDT
Civil Twilight 8:01 AM AKDT 9:27 PM AKDT
Nautical Twilight 7:03 AM AKDT 10:25 PM AKDT
Astronomical Twilight 6:00 AM AKDT 11:29 PM AKDT
Moon 9:28 PM AKDT (3/16) 8:28 AM AKDT (3/16)
Length of Visible Light 13h 26m
Length of Day
11h 50m
Full, 100% of the Moon is Illuminated
Mar 16
Full
Mar 23
Last Quarter
Mar 30
New
Apr 7
First Quarter
Apr 14
Full

Hourly Weather History & Observations

Time (AKDT) Temp. Windchill Dew Point Humidity Pressure Visibility Wind Dir Wind Speed Gust Speed Precip Events Conditions
12:48 AM -13.0 °F -22.7 °F -18.4 °F 77% 29.72 in 9.0 mi SW 3.5 mph - N/A   Mostly Cloudy
12:53 AM -13.0 °F -22.7 °F -18.0 °F 78% 29.75 in 9.0 mi SW 3.5 mph - N/A   Overcast
1:22 AM -14.1 °F -23.9 °F -20.0 °F 75% 29.72 in 10.0 mi SW 3.5 mph - N/A   Mostly Cloudy
1:53 AM -14.1 °F -23.9 °F -18.0 °F 82% 29.73 in 6.0 mi SW 3.5 mph - N/A   Overcast
2:17 AM -15.0 °F -27.4 °F -20.0 °F 78% 29.70 in 10.0 mi SW 4.6 mph - N/A   Mostly Cloudy
2:53 AM -15.0 °F -25.0 °F -18.9 °F 82% 29.71 in 10.0 mi SW 3.5 mph - N/A   Overcast
3:53 AM -14.1 °F - -20.0 °F 75% 29.68 in 10.0 mi Calm Calm - N/A   Mostly Cloudy
4:53 AM -11.9 °F -21.5 °F -17.0 °F 78% 29.67 in 7.0 mi SW 3.5 mph - 0.00 in   Overcast
5:53 AM -11.9 °F - -17.0 °F 78% 29.66 in 10.0 mi Calm Calm - N/A   Scattered Clouds
6:53 AM -17.0 °F -27.2 °F -22.0 °F 78% 29.64 in 10.0 mi SW 3.5 mph - N/A   Scattered Clouds
7:53 AM -15.0 °F - -20.0 °F 78% 29.62 in 10.0 mi Calm Calm - N/A   Overcast
8:53 AM -11.9 °F - -17.0 °F 78% 29.59 in 10.0 mi Calm Calm - N/A   Overcast
9:53 AM -7.1 °F - -11.9 °F 79% 29.57 in 10.0 mi Calm Calm - N/A   Overcast
10:53 AM 1.9 °F -10.6 °F -7.1 °F 66% 29.55 in 10.0 mi ENE 6.9 mph - N/A   Overcast
11:53 AM 5.0 °F -5.6 °F -6.0 °F 61% 29.53 in 10.0 mi ENE 5.8 mph - N/A   Partly Cloudy
12:53 PM 8.1 °F -6.2 °F -5.1 °F 55% 29.51 in 10.0 mi NE 10.4 mph - N/A   Clear
1:53 PM 10.9 °F -1.8 °F -2.9 °F 54% 29.49 in 10.0 mi NE 9.2 mph - N/A   Clear
2:53 PM 12.9 °F 0.7 °F -2.0 °F 51% 29.47 in 10.0 mi NE 9.2 mph - N/A   Clear
3:53 PM 12.9 °F -0.9 °F -2.0 °F 51% 29.44 in 10.0 mi NE 11.5 mph 18.4 mph N/A   Mostly Cloudy
4:53 PM 15.1 °F 1.1 °F -0.0 °F 51% 29.43 in 10.0 mi NE 12.7 mph - N/A   Overcast
5:29 PM 15.1 °F 1.1 °F 1.0 °F 54% 29.40 in 9.0 mi NE 12.7 mph - N/A   Overcast
5:49 PM 15.8 °F 0.3 °F 3.2 °F 58% 29.39 in 2.0 mi NE 16.1 mph - 0.00 in Snow Light Snow
5:53 PM 15.1 °F -0.1 °F 3.9 °F 61% 29.41 in 2.0 mi NE 15.0 mph - 0.00 in Snow Light Snow
6:09 PM 15.1 °F -0.6 °F 6.1 °F 68% 29.39 in 1.8 mi NE 16.1 mph - 0.00 in Snow Light Snow
6:53 PM 15.1 °F -0.1 °F 9.0 °F 77% 29.40 in 1.0 mi NE 15.0 mph - 0.00 in Snow Light Snow
7:23 PM 16.0 °F 1.7 °F 10.9 °F 81% 29.37 in 0.8 mi NE 13.8 mph - 0.00 in Snow Light Snow
7:53 PM 17.1 °F 5.0 °F 12.0 °F 81% 29.39 in 0.8 mi NE 10.4 mph - 0.00 in Snow Light Snow
8:16 PM 18.0 °F 5.4 °F 14.0 °F 84% 29.38 in 0.5 mi NE 11.5 mph - 0.00 in Fog , Snow Snow
8:39 PM 18.0 °F 6.9 °F 14.0 °F 84% 29.38 in 0.8 mi NE 9.2 mph - 0.00 in Snow Light Snow
8:49 PM 17.6 °F 5.7 °F 14.0 °F 86% 29.38 in 1.8 mi NE 10.4 mph - 0.00 in Snow Light Snow
8:53 PM 18.0 °F 6.9 °F 14.0 °F 84% 29.40 in 1.5 mi NE 9.2 mph - 0.00 in Snow Light Snow
9:53 PM 19.0 °F 10.0 °F 15.1 °F 85% 29.40 in 2.0 mi NNE 6.9 mph - 0.00 in Snow Light Snow
10:32 PM 19.9 °F 9.3 °F 16.0 °F 85% 29.39 in 4.0 mi NE 9.2 mph - 0.00 in Snow Light Snow
10:53 PM 19.9 °F 12.1 °F 16.0 °F 85% 29.41 in 4.0 mi ENE 5.8 mph - 0.00 in Snow Light Snow
11:11 PM 19.9 °F 11.1 °F 16.0 °F 85% 29.40 in 1.8 mi NE 6.9 mph - 0.01 in Snow Light Snow
11:53 PM 19.9 °F 13.4 °F 17.1 °F 89% 29.43 in 1.0 mi ENE 4.6 mph - 0.01 in Snow Light Snow